Location: Dehesa de la Cepeda
(40.6574°N, 4.3013°W)
Time: 03:17:41
(UTC+00:00)

Tiros 1 - Visible Passes

Search period start: 06 August 2021 00:00
Search period end: 16 August 2021 00:00
Orbit: 630 x 664 km, 48.4° (Epoch: 05 August)

Date Brightness Start Highest point End Pass type
(mag) Time Alt. Az. Time Alt. Az. Time Alt. Az.
06 Aug 8.3 20:13:46 10° NW 20:18:15 38° NNE 20:22:40 10° E visible
06 Aug 7.0 21:56:00 10° WNW 22:00:45 77° SSW 22:00:47 77° SSW visible
07 Aug 7.6 20:39:46 10° NW 20:44:28 57° NNE 20:47:42 19° E visible
07 Aug 8.4 22:22:12 10° WNW 22:25:20 31° WSW 22:25:20 31° WSW visible
08 Aug 7.1 21:05:43 10° WNW 21:10:30 83° SSW 21:12:17 38° SE visible
08 Aug 9.6 22:49:06 10° W 22:49:55 13° W 22:49:55 13° W visible
09 Aug 7.7 19:49:29 10° NW 19:54:10 54° NNE 19:58:49 10° E visible
09 Aug 7.8 21:31:52 10° WNW 21:36:19 40° SW 21:36:55 38° SSW visible
10 Aug 7.2 20:15:26 10° WNW 20:20:13 88° SW 20:23:59 16° ESE visible
10 Aug 9.1 21:58:38 10° W 22:01:38 19° SW 22:01:38 19° SW visible
11 Aug 7.9 20:41:33 10° WNW 20:46:04 44° SW 20:48:45 22° SSE visible
12 Aug 9.0 21:08:12 10° W 21:11:42 21° SW 21:13:35 16° SSW visible
13 Aug 7.9 19:51:14 10° WNW 19:55:49 48° SW 20:00:22 10° SE visible
14 Aug 9.0 20:17:47 10° W 20:21:28 22° SW 20:25:07 10° S visible
